FW7322 Weather Reports


Display with metric or nautical units.
time (UTC)temp
F
wind
direction
speed
MPH
gust
MPH
rain 1hr
in
rain 24hr
in
rain mn
in
humidity
%
barometer
mb
20260503232021 58 100 1.0 9.0 0.00 0.00 0.00 41 1035.8
20260503231521 58 157 2.0 9.0 0.00 0.00 0.00 42 1035.8
20260503231021 58 75 0.0 9.0 0.00 0.00 0.00 44 1035.7
20260503230521 58 68 4.0 9.0 0.00 0.00 0.00 42 1035.7
20260503230021 58 94 2.0 8.0 0.00 0.00 0.00 41 1035.6
20260503225520 58 86 1.0 8.0 0.00 0.00 0.00 41 1035.7
20260503225020 58 91 2.0 7.0 0.00 0.00 0.00 42 1035.7
20260503224520 58 87 2.0 7.0 0.00 0.00 0.00 41 1035.7
20260503224023 58 65 3.0 13.0 0.00 0.00 0.00 40 1035.7
20260503223519 59 117 2.0 13.0 0.00 0.00 0.00 39 1035.6
20260503223019 59 71 3.0 8.0 0.00 0.00 0.00 39 1035.7
20260503222519 59 86 1.0 14.0 0.00 0.00 0.00 40 1035.8
20260503222019 59 94 3.0 16.0 0.00 0.00 0.00 39 1035.6
20260503221519 59 75 7.0 16.0 0.00 0.00 0.00 36 1035.5
20260503221021 59 110 3.0 9.0 0.00 0.00 0.00 39 1035.6
20260503220518 59 91 2.0 9.0 0.00 0.00 0.00 38 1035.7
20260503220021 58 108 3.0 15.0 0.00 0.00 0.00 39 1035.7
20260503215519 59 67 3.0 15.0 0.00 0.00 0.00 40 1035.9
20260503215018 59 140 2.0 10.0 0.00 0.00 0.00 38 1035.9
20260503214526 59 94 2.0 11.0 0.00 0.00 0.00 40 1035.7
20260503214017 60 64 4.0 16.0 0.00 0.00 0.00 37 1035.7
20260503213517 61 85 0.0 16.0 0.00 0.00 0.00 38 1035.5
20260503213018 60 91 4.0 13.0 0.00 0.00 0.00 36 1035.6
20260503212521 60 79 2.0 10.0 0.00 0.00 0.00 39 1035.5
20260503212016 60 106 2.0 10.0 0.00 0.00 0.00 40 1035.4
20260503211516 60 70 4.0 12.0 0.00 0.00 0.00 39 1035.4
20260503211017 60 82 4.0 12.0 0.00 0.00 0.00 38 1035.4
20260503210516 60 72 3.0 9.0 0.00 0.00 0.00 38 1035.6
20260503210036 61 82 2.0 9.0 0.00 0.00 0.00 41 1035.4
20260503205519 61 82 1.0 12.0 0.00 0.00 0.00 40 1035.6
20260503205015 60 82 2.0 12.0 0.00 0.00 0.00 40 1035.5
20260503204516 60 68 2.0 12.0 0.00 0.00 0.00 38 1035.5
20260503204018 60 103 4.0 12.0 0.00 0.00 0.00 38 1035.4
20260503203514 61 81 3.0 12.0 0.00 0.00 0.00 43 1035.5
20260503203018 60 78 3.0 10.0 0.00 0.00 0.00 40 1035.4
20260503202513 59 84 4.0 10.0 0.00 0.00 0.00 37 1035.7
20260503202013 60 68 3.0 16.0 0.00 0.00 0.00 40 1035.4
20260503201513 60 64 4.0 16.0 0.00 0.00 0.00 41 1035.3
20260503201011 59 103 2.0 8.0 0.00 0.00 0.00 38 1035.5
20260503200510 59 248 1.0 11.0 0.00 0.00 0.00 43 1035.7
20260503200015 59 110 4.0 11.0 0.00 0.00 0.00 41 1035.8
20260503195508 59 105 2.0 9.0 0.00 0.00 0.00 40 1035.9
20260503195008 59 81 4.0 13.0 0.00 0.00 0.00 37 1036.0
20260503194507 58 68 3.0 13.0 0.00 0.00 0.00 38 1036.1
20260503194007 58 85 5.0 11.0 0.00 0.00 0.00 39 1036.2
20260503193507 59 100 2.0 11.0 0.00 0.00 0.00 39 1036.4
20260503193006 59 82 2.0 16.0 0.00 0.00 0.00 39 1036.3
20260503192505 58 79 2.0 16.0 0.00 0.00 0.00 41 1036.5
20260503192005 58 108 4.0 12.0 0.00 0.00 0.00 40 1036.5
20260503191505 58 78 2.0 6.0 0.00 0.00 0.00 42 1036.6
20260503191004 58 136 0.0 7.0 0.00 0.00 0.00 40 1036.6
20260503190506 59 96 2.0 9.0 0.00 0.00 0.00 38 1036.7
20260503190004 59 108 4.0 13.0 0.00 0.00 0.00 38 1036.7
20260503185503 59 94 4.0 13.0 0.00 0.00 0.00 39 1036.8
20260503185004 59 82 4.0 12.0 0.00 0.00 0.00 36 1036.8
20260503184502 59 101 0.0 11.0 0.00 0.00 0.00 42 1036.7
20260503184001 59 74 3.0 11.0 0.00 0.00 0.00 39 1036.8
20260503183501 58 95 1.0 8.0 0.00 0.00 0.00 41 1036.9
20260503183108 59 89 2.0 7.0 0.00 0.00 0.00 40 1037.0
20260503182558 58 103 2.0 13.0 0.00 0.00 0.00 47 1037.1
20260503182058 58 71 6.0 13.0 0.00 0.00 0.00 36 1037.1
20260503181558 58 81 2.0 13.0 0.00 0.00 0.00 38 1037.1
20260503181056 58 115 1.0 11.0 0.00 0.00 0.00 44 1037.1
20260503180555 56 91 5.0 11.0 0.00 0.00 0.00 41 1037.1
20260503180106 56 198 2.0 11.0 0.00 0.00 0.00 44 1037.3
20260503175555 56 103 1.0 11.0 0.00 0.00 0.00 42 1037.3
20260503175054 56 91 3.0 12.0 0.00 0.00 0.00 42 1037.4
20260503174554 56 117 5.0 12.0 0.00 0.00 0.00 41 1037.6
20260503174055 56 283 3.0 11.0 0.00 0.00 0.00 43 1037.4
20260503173553 57 97 1.0 9.0 0.00 0.00 0.00 41 1037.6
20260503173142 56 73 2.0 10.0 0.00 0.00 0.00 47 1037.6
20260503172550 55 74 4.0 10.0 0.00 0.00 0.00 43 1037.8
20260503172050 55 79 1.0 10.0 0.00 0.00 0.00 45 1037.9
20260503171550 55 94 0.0 9.0 0.00 0.00 0.00 46 1037.8
20260503171048 54 74 1.0 9.0 0.00 0.00 0.00 42 1037.9
20260503170548 54 91 3.0 11.0 0.00 0.00 0.00 46 1038.0
20260503150538 50 31 7.0 13.0 0.00 0.00 0.00 44 1038.9
20260503131030 46 91 1.0 7.0 0.00 0.00 0.00 60 1039.6
20260503130526 46 58 2.0 9.0 0.00 0.00 0.00 63 1039.7
20260503110516 38 89 0.0 0.0 0.00 0.00 0.00 79 1039.0
20260503090500 37 88 0.0 0.0 0.00 0.00 0.00 77 1037.9
20260503090106 37 88 0.0 0.0 0.00 0.00 0.00 77 1037.9
20260503081557 40 83 0.0 2.0 0.00 0.00 0.00 69 1037.7
20260503081049 40 84 0.0 4.0 0.00 0.00 0.00 69 1037.7
20260503080549 41 87 0.0 4.0 0.00 0.00 0.00 68 1037.7
20260503072544 41 94 0.0 6.0 0.00 0.04 0.00 70 1037.3
20260503072044 42 68 0.0 2.0 0.00 0.04 0.00 71 1037.3
20260503071545 42 84 0.0 2.0 0.00 0.04 0.00 71 1037.3
20260503071043 42 59 0.0 2.0 0.00 0.04 0.00 70 1037.2
20260503070542 42 89 0.0 0.0 0.00 0.04 0.00 71 1037.2
20260503055033 43 82 1.0 5.0 0.00 0.07 0.00 69 1037.5
20260503054538 43 78 0.0 9.0 0.00 0.07 0.00 68 1037.4
20260503054032 43 85 0.0 9.0 0.00 0.07 0.00 68 1037.5
20260503053535 43 91 0.0 5.0 0.00 0.07 0.00 69 1037.5
20260503053032 43 77 0.0 7.0 0.00 0.07 0.00 69 1037.5
20260503052530 43 186 0.0 7.0 0.00 0.07 0.00 69 1037.6
20260503052029 43 60 0.0 2.0 0.00 0.07 0.00 70 1037.7
20260503051529 43 60 0.0 2.0 0.00 0.07 0.00 68 1037.7
20260503051028 43 63 0.0 2.0 0.00 0.07 0.00 68 1037.7
20260503050529 43 58 0.0 0.0 0.00 0.07 0.00 68 1037.7
20260503050028 43 243 0.0 0.0 0.00 0.07 0.00 68 1037.7
20260503045526 44 145 0.0 0.0 0.00 0.08 0.00 68 1037.7
20260503045029 44 86 0.0 0.0 0.00 0.08 0.00 67 1037.8
20260503044538 44 80 0.0 0.0 0.00 0.08 0.00 67 1037.8
20260503044029 44 141 0.0 0.0 0.00 0.08 0.00 66 1037.8
20260503043525 44 141 0.0 1.0 0.00 0.08 0.00 65 1037.8
20260503043025 44 87 0.0 2.0 0.00 0.08 0.00 66 1037.8
20260503042524 44 305 0.0 2.0 0.00 0.08 0.00 65 1037.9
20260503042023 44 68 0.0 3.0 0.00 0.08 0.00 67 1038.0
20260503041523 45 87 0.0 3.0 0.00 0.08 0.00 65 1038.1
20260503041022 45 80 0.0 2.0 0.00 0.08 0.00 66 1038.0
20260503040522 45 72 0.0 4.0 0.00 0.08 0.00 67 1037.9
20260503040021 45 72 1.0 4.0 0.00 0.08 0.00 66 1038.0
20260503035520 45 59 0.0 4.0 0.00 0.11 0.08 67 1038.0
20260503035023 45 85 0.0 3.0 0.00 0.11 0.08 66 1038.1
20260503034522 45 18 0.0 3.0 0.00 0.11 0.08 66 1038.0
20260503034019 45 4 0.0 7.0 0.00 0.11 0.08 66 1037.9
20260503033525 45 84 2.0 7.0 0.00 0.11 0.08 66 1037.9
20260503033020 45 89 1.0 5.0 0.00 0.11 0.08 68 1037.9
20260503032519 45 78 0.0 5.0 0.00 0.11 0.08 69 1037.9
20260503032019 45 78 0.0 6.0 0.00 0.11 0.08 69 1037.9
20260503031519 45 65 2.0 6.0 0.00 0.11 0.08 69 1037.9
20260503031019 45 81 0.0 3.0 0.00 0.11 0.08 70 1037.9
20260503030526 45 81 0.0 4.0 0.00 0.11 0.08 70 1037.8
20260503030019 45 71 0.0 4.0 0.00 0.11 0.08 73 1037.8
20260503025520 45 73 0.0 1.0 0.00 0.11 0.08 71 1037.9
20260503025019 46 73 0.0 3.0 0.00 0.11 0.08 70 1037.9
20260503024518 45 103 0.0 3.0 0.00 0.11 0.08 71 1038.0
20260503024019 45 72 0.0 2.0 0.00 0.11 0.08 75 1038.0
20260503023518 46 71 0.0 1.0 0.00 0.11 0.08 72 1037.9
20260503023021 46 71 0.0 4.0 0.00 0.11 0.08 71 1037.9
20260503022517 46 71 0.0 4.0 0.00 0.11 0.08 69 1037.9
20260503022020 46 75 0.0 3.0 0.00 0.11 0.08 69 1038.0
20260503021517 46 75 0.0 3.0 0.00 0.11 0.08 68 1038.0
20260503021017 46 245 0.0 0.0 0.00 0.11 0.08 69 1038.0
20260503020517 46 245 0.0 0.0 0.00 0.11 0.08 67 1037.9
20260503020017 46 245 0.0 3.0 0.00 0.11 0.08 68 1037.9
20260503015636 46 245 0.0 3.0 0.00 0.12 0.08 67 1037.9
20260503015017 47 245 0.0 3.0 0.00 0.12 0.08 66 1037.9
20260503014517 47 178 0.0 2.0 0.00 0.12 0.08 64 1037.8
20260503014017 47 75 0.0 4.0 0.00 0.12 0.08 65 1037.9
20260503013520 47 75 0.0 4.0 0.00 0.12 0.08 64 1037.9
20260503013025 47 93 0.0 0.0 0.00 0.12 0.08 65 1037.8
20260503012515 47 91 0.0 0.0 0.00 0.12 0.08 63 1037.8
20260503012019 48 77 0.0 0.0 0.00 0.12 0.08 64 1037.8
20260503011515 48 77 0.0 3.0 0.00 0.12 0.08 61 1037.7
20260503011015 48 82 0.0 3.0 0.00 0.12 0.08 62 1037.7
20260503010515 48 81 0.0 4.0 0.00 0.12 0.08 60 1037.6
20260503010015 48 112 0.0 8.0 0.00 0.12 0.08 60 1037.5
20260503005515 48 79 1.0 8.0 0.00 0.13 0.08 60 1037.6
20260503005015 48 70 0.0 7.0 0.00 0.13 0.08 61 1037.5
20260503004515 48 78 1.0 7.0 0.00 0.13 0.08 59 1037.4
20260503004014 48 86 1.0 4.0 0.00 0.13 0.08 59 1037.3
20260503003513 48 85 0.0 5.0 0.00 0.13 0.08 60 1037.2
20260503003013 48 94 1.0 6.0 0.00 0.13 0.08 58 1037.2
20260503002515 49 79 0.0 6.0 0.00 0.13 0.08 60 1037.2
20260503002012 48 91 0.0 5.0 0.00 0.13 0.08 60 1037.1
20260503001512 48 58 1.0 5.0 0.00 0.13 0.08 58 1037.1
20260503001017 49 97 0.0 1.0 0.00 0.13 0.08 60 1037.0
20260503000512 49 97 0.0 2.0 0.00 0.13 0.08 62 1037.0
20260503000012 49 97 0.0 2.0 0.00 0.13 0.08 59 1036.9
20260502235512 49 78 0.0 4.0 0.00 0.15 0.08 58 1036.9
20260502235011 49 77 0.0 5.0 0.00 0.15 0.08 56 1037.0
20260502234511 49 79 0.0 5.0 0.00 0.15 0.08 57 1036.9
20260502234012 49 65 1.0 5.0 0.00 0.15 0.08 57 1036.9
20260502233514 50 72 0.0 11.0 0.00 0.15 0.08 58 1036.8
20260502233011 50 72 2.0 11.0 0.00 0.15 0.08 57 1036.6
20260502232514 50 90 0.0 6.0 0.00 0.15 0.08 58 1036.5